sat.trackr.live / text

‹ back to catalog

STARLINK-37071

NORAD 68190 · 2026-050Z

PAYLOAD ACTIVE UNKNOWN

§ Identity

Operator
Country
US
Launch date
2026-03-14
Launch site
AFETR
Launch vehicle
Mass (kg)
RCS (m²)

Purposes: comms

External: N2YO · Heavens-Above · Gunter

§ Orbital elements

Epoch: 2026-09-19T21:57:15.920640Z

Period
93.85 min
Inclination
53.1578°
Eccentricity
0.0001274
Mean motion
15.34406111 rev/d
Perigee alt
461.8 km
Apogee alt
463.6 km
Semi-major
6,840.8 km
B*
4.4690e-4
RAAN
80.7761°
Arg perigee
70.5488°
Mean anomaly
289.5652°
Rev number
3,047

§ Raw data

STARLINK-370711 68190U 26050Z   26262.91476760  .00014756  00000+0  44690-3 0  99932 68190  53.1578  80.7761 0001274  70.5488 289.5652 15.34406111 30477

JSON: /api/v1/satellites/68190 · /tle

For live sub-satellite position, see the globe view (requires WebGL).

§ Visibility from observer

Set your observer location to see the next 7 days of passes ≥ 10°. The values pass through the URL so the page stays shareable.

No JS? Fill the form by hand. The geolocation button needs JavaScript.